GLO1434 SBSP-SBGO

Flight info

Callsign GLO1434
Flight time 1h 13m
Altitude 36000
Route UGTI2A GERTU UZ25 PUGOR UZ25 CORVO
Aircraft B738/M-SDE2E3FGHIRWXY/LB1

Departure

Time 2026-04-21 15:02
Airport Congonhas–Deputado Freitas Nobre Airport (SBSP)

Arrival

Time 2026-04-21 16:16
Airport Santa Genoveva International Airport (SBGO)
Time Latitude Longitude Altitude Speed Heading
2026-04-21 14:11 -23.62479 -46.65984 2599 ft 0 kts 237°
2026-04-21 14:53 -23.62478 -46.65983 2599 ft 2 kts 237°
2026-04-21 14:53 -23.62469 -46.65960 2599 ft 4 kts 271°
2026-04-21 14:53 -23.62476 -46.65935 2600 ft 4 kts 320°
2026-04-21 14:53 -23.62482 -46.65930 2600 ft 1 kts 327°
2026-04-21 14:56 -23.62480 -46.65932 2600 ft 2 kts 327°
2026-04-21 14:57 -23.62454 -46.65939 2600 ft 6 kts 358°
2026-04-21 14:57 -23.62400 -46.65941 2600 ft 9 kts 346°
2026-04-21 14:57 -23.62344 -46.65977 2599 ft 9 kts 328°
2026-04-21 14:57 -23.62290 -46.66014 2599 ft 9 kts 328°
2026-04-21 14:58 -23.62235 -46.66048 2599 ft 9 kts 335°
2026-04-21 14:58 -23.62183 -46.66080 2594 ft 9 kts 327°
2026-04-21 14:58 -23.62141 -46.66110 2594 ft 6 kts 327°
2026-04-21 14:58 -23.62126 -46.66120 2591 ft 0 kts 327°
2026-04-21 15:00 -23.62121 -46.66124 2589 ft 3 kts 327°
2026-04-21 15:00 -23.62075 -46.66135 2594 ft 10 kts
2026-04-21 15:00 -23.62042 -46.66093 2593 ft 5 kts 91°
2026-04-21 15:01 -23.62060 -46.66068 2593 ft 3 kts 147°
2026-04-21 15:01 -23.62084 -46.66051 2596 ft 5 kts 147°
2026-04-21 15:01 -23.62125 -46.66022 2594 ft 19 kts 148°
2026-04-21 15:01 -23.62488 -46.65771 2603 ft 102 kts 148°
2026-04-21 15:02 -23.63274 -46.65221 2766 ft 154 kts 145°
2026-04-21 15:02 -23.64198 -46.64560 3542 ft 164 kts 146°
2026-04-21 15:02 -23.65239 -46.64076 4351 ft 167 kts 175°
2026-04-21 15:02 -23.66427 -46.64187 4991 ft 179 kts 183°
2026-04-21 15:03 -23.67712 -46.64340 5555 ft 198 kts 182°
2026-04-21 15:03 -23.69118 -46.64466 6226 ft 207 kts 181°
2026-04-21 15:03 -23.70651 -46.64570 6528 ft 232 kts 181°
2026-04-21 15:03 -23.72309 -46.64680 6989 ft 247 kts 182°
2026-04-21 15:04 -23.74057 -46.64811 7067 ft 252 kts 187°
2026-04-21 15:04 -23.75656 -46.65531 7194 ft 255 kts 218°
2026-04-21 15:04 -23.76787 -46.67090 7381 ft 271 kts 242°
2026-04-21 15:04 -23.77506 -46.69015 7572 ft 275 kts 249°
2026-04-21 15:05 -23.78140 -46.71011 7755 ft 282 kts 249°
2026-04-21 15:05 -23.79615 -46.74986 8105 ft 282 kts 236°
2026-04-21 15:05 -23.80700 -46.76748 8453 ft 280 kts 233°
2026-04-21 15:06 -23.81830 -46.78502 8835 ft 286 kts 233°
2026-04-21 15:06 -23.82962 -46.80296 9197 ft 287 kts 234°
2026-04-21 15:06 -23.84074 -46.82095 9679 ft 285 kts 234°
2026-04-21 15:06 -23.85175 -46.83894 10161 ft 284 kts 234°
2026-04-21 15:07 -23.86278 -46.85730 10428 ft 302 kts 239°
2026-04-21 15:07 -23.86921 -46.87979 10582 ft 332 kts 266°
2026-04-21 15:07 -23.86459 -46.90512 10918 ft 352 kts 295°
2026-04-21 15:07 -23.85222 -46.92851 11598 ft 358 kts 301°
2026-04-21 15:08 -23.83872 -46.95160 12269 ft 364 kts 302°
2026-04-21 15:08 -23.82501 -46.97515 12882 ft 371 kts 301°
2026-04-21 15:08 -23.81138 -46.99917 13628 ft 374 kts 301°
2026-04-21 15:08 -23.79785 -47.02360 14296 ft 378 kts 300°
2026-04-21 15:09 -23.78439 -47.04830 14985 ft 379 kts 300°
2026-04-21 15:09 -23.77092 -47.07312 15668 ft 381 kts 299°
2026-04-21 15:09 -23.75755 -47.09770 16325 ft 384 kts 300°
2026-04-21 15:09 -23.74010 -47.11989 16930 ft 391 kts 321°
2026-04-21 15:10 -23.71614 -47.13398 17644 ft 394 kts 341°
2026-04-21 15:10 -23.68943 -47.14078 18373 ft 395 kts 347°
2026-04-21 15:10 -23.66230 -47.14651 18888 ft 399 kts 348°
2026-04-21 15:10 -23.63488 -47.15211 19388 ft 403 kts 348°
2026-04-21 15:11 -23.60721 -47.15783 19945 ft 405 kts 348°
2026-04-21 15:11 -23.57947 -47.16368 20516 ft 407 kts 347°
2026-04-21 15:11 -23.55170 -47.16965 21070 ft 408 kts 347°
2026-04-21 15:11 -23.52377 -47.17572 21623 ft 410 kts 347°
2026-04-21 15:12 -23.49612 -47.18176 22117 ft 412 kts 347°
2026-04-21 15:12 -23.46790 -47.18795 22637 ft 414 kts 346°
2026-04-21 15:12 -23.43955 -47.19417 23155 ft 416 kts 347°
2026-04-21 15:12 -23.41110 -47.20040 23663 ft 419 kts 347°
2026-04-21 15:13 -23.38247 -47.20667 24045 ft 421 kts 347°
2026-04-21 15:13 -23.35364 -47.21297 24423 ft 424 kts 346°
2026-04-21 15:13 -23.32466 -47.21931 24793 ft 427 kts 347°
2026-04-21 15:13 -23.29545 -47.22569 25143 ft 429 kts 347°
2026-04-21 15:14 -23.26648 -47.23202 25497 ft 432 kts 347°
2026-04-21 15:14 -23.23692 -47.23846 25864 ft 434 kts 347°
2026-04-21 15:14 -23.20719 -47.24494 26204 ft 437 kts 347°
2026-04-21 15:14 -23.17731 -47.25144 26582 ft 439 kts 347°
2026-04-21 15:15 -23.14725 -47.25799 26909 ft 442 kts 347°
2026-04-21 15:15 -23.11699 -47.26457 27240 ft 444 kts 347°
2026-04-21 15:15 -23.08659 -47.27119 27566 ft 447 kts 347°
2026-04-21 15:15 -23.05602 -47.27784 27883 ft 449 kts 347°
2026-04-21 15:16 -23.02534 -47.28450 28197 ft 451 kts 347°
2026-04-21 15:16 -22.99451 -47.29120 28495 ft 453 kts 347°
2026-04-21 15:16 -22.96392 -47.29784 28777 ft 455 kts 347°
2026-04-21 15:16 -22.93276 -47.30461 29059 ft 458 kts 347°
2026-04-21 15:17 -22.90150 -47.31139 29334 ft 460 kts 347°
2026-04-21 15:17 -22.87003 -47.31822 29596 ft 462 kts 347°
2026-04-21 15:17 -22.83849 -47.32506 29845 ft 464 kts 347°
2026-04-21 15:17 -22.80680 -47.33192 30126 ft 465 kts 347°
2026-04-21 15:18 -22.77497 -47.33881 30351 ft 467 kts 347°
2026-04-21 15:18 -22.74308 -47.34572 30548 ft 469 kts 347°
2026-04-21 15:18 -22.71103 -47.35274 30737 ft 470 kts 345°
2026-04-21 15:18 -22.68027 -47.36310 30947 ft 469 kts 335°
2026-04-21 15:19 -22.65106 -47.37847 31268 ft 465 kts 328°
2026-04-21 15:19 -22.62455 -47.39825 31617 ft 461 kts 320°
2026-04-21 15:19 -22.59935 -47.41974 31941 ft 461 kts 319°
2026-04-21 15:19 -22.57428 -47.44129 32222 ft 461 kts 319°
2026-04-21 15:20 -22.54906 -47.46275 32531 ft 460 kts 319°
2026-04-21 15:20 -22.52381 -47.48397 32885 ft 459 kts 320°
2026-04-21 15:20 -22.49855 -47.50501 33245 ft 458 kts 319°
2026-04-21 15:20 -22.47330 -47.52599 33572 ft 457 kts 319°
2026-04-21 15:21 -22.44744 -47.54532 33842 ft 461 kts 327°
2026-04-21 15:21 -22.41830 -47.56020 34118 ft 466 kts 336°
2026-04-21 15:21 -22.38713 -47.57040 34336 ft 471 kts 345°
2026-04-21 15:21 -22.35474 -47.57629 34586 ft 473 kts 348°
2026-04-21 15:22 -22.32218 -47.58143 34831 ft 473 kts 348°
2026-04-21 15:22 -22.28955 -47.58642 35041 ft 474 kts 348°
2026-04-21 15:22 -22.25685 -47.59149 35272 ft 475 kts 348°
2026-04-21 15:22 -22.22421 -47.59671 35525 ft 474 kts 348°
2026-04-21 15:23 -22.19150 -47.60206 35727 ft 476 kts 347°
2026-04-21 15:23 -22.15925 -47.60744 35919 ft 477 kts 347°
2026-04-21 15:23 -22.12636 -47.61296 36102 ft 478 kts 347°
2026-04-21 15:23 -22.09334 -47.61853 36084 ft 482 kts 347°
2026-04-21 15:24 -22.02712 -47.62965 36080 ft 480 kts 347°
2026-04-21 15:24 -21.96166 -47.64060 36089 ft 475 kts 347°
2026-04-21 15:25 -21.89613 -47.65157 36099 ft 478 kts 347°
2026-04-21 15:25 -21.83059 -47.66254 36075 ft 482 kts 347°
2026-04-21 15:26 -21.76419 -47.67363 36060 ft 483 kts 347°
2026-04-21 15:26 -21.69769 -47.68472 36058 ft 484 kts 347°
2026-04-21 15:27 -21.63122 -47.69579 36054 ft 483 kts 347°
2026-04-21 15:27 -21.56531 -47.70672 36058 ft 482 kts 348°
2026-04-21 15:28 -21.49913 -47.71759 36045 ft 480 kts 348°
2026-04-21 15:28 -21.43311 -47.72842 36052 ft 479 kts 348°
2026-04-21 15:29 -21.36730 -47.73922 36062 ft 478 kts 348°
2026-04-21 15:29 -21.30207 -47.74993 36062 ft 477 kts 348°
2026-04-21 15:30 -21.23648 -47.76069 36067 ft 476 kts 348°
2026-04-21 15:30 -21.17097 -47.77142 36076 ft 476 kts 348°
2026-04-21 15:31 -21.10547 -47.78166 36083 ft 476 kts 349°
2026-04-21 15:31 -21.04023 -47.79042 36031 ft 476 kts 350°
2026-04-21 15:32 -20.97449 -47.79910 36041 ft 476 kts 350°
2026-04-21 15:32 -20.90875 -47.80796 36040 ft 476 kts 349°
2026-04-21 15:33 -20.84289 -47.81694 36022 ft 477 kts 349°
2026-04-21 15:33 -20.77748 -47.82586 36038 ft 477 kts 350°
2026-04-21 15:34 -20.71155 -47.83484 36035 ft 478 kts 350°
2026-04-21 15:34 -20.64558 -47.84380 36026 ft 478 kts 350°
2026-04-21 15:35 -20.57966 -47.85276 36019 ft 477 kts 350°
2026-04-21 15:35 -20.51423 -47.86164 36022 ft 477 kts 351°
2026-04-21 15:36 -20.44847 -47.87055 36019 ft 476 kts 351°
2026-04-21 15:36 -20.38277 -47.87946 36016 ft 476 kts 351°
2026-04-21 15:37 -20.31717 -47.88834 36012 ft 475 kts 351°
2026-04-21 15:37 -20.25174 -47.89719 36008 ft 474 kts 351°
2026-04-21 15:38 -20.18689 -47.90597 36012 ft 472 kts 351°
2026-04-21 15:38 -20.12174 -47.91478 36008 ft 472 kts 351°
2026-04-21 15:39 -20.05670 -47.92357 36042 ft 471 kts 351°
2026-04-21 15:39 -19.99175 -47.93233 36065 ft 471 kts 351°
2026-04-21 15:40 -19.92721 -47.94104 36094 ft 470 kts 351°
2026-04-21 15:40 -19.86233 -47.94978 36127 ft 470 kts 351°
2026-04-21 15:41 -19.79747 -47.95851 36131 ft 470 kts 351°
2026-04-21 15:41 -19.73265 -47.96723 36133 ft 469 kts 351°
2026-04-21 15:42 -19.66827 -47.97589 36011 ft 470 kts 351°
2026-04-21 15:42 -19.60339 -47.98460 36006 ft 470 kts 351°
2026-04-21 15:43 -19.53855 -47.99331 36012 ft 470 kts 351°
2026-04-21 15:43 -19.47363 -48.00201 36012 ft 470 kts 351°
2026-04-21 15:44 -19.40869 -48.01071 36010 ft 470 kts 351°
2026-04-21 15:44 -19.34419 -48.01935 36018 ft 470 kts 352°
2026-04-21 15:45 -19.27923 -48.02811 36012 ft 471 kts 351°
2026-04-21 15:45 -19.21428 -48.03732 36013 ft 471 kts 351°
2026-04-21 15:46 -19.14936 -48.04659 36012 ft 471 kts 351°
2026-04-21 15:46 -19.08486 -48.05574 36015 ft 471 kts 351°
2026-04-21 15:47 -19.01991 -48.06492 36015 ft 471 kts 351°
2026-04-21 15:47 -18.95499 -48.07408 36123 ft 471 kts 351°
2026-04-21 15:48 -18.89102 -48.08797 36133 ft 469 kts 338°
2026-04-21 15:48 -18.83250 -48.11669 36144 ft 467 kts 333°
2026-04-21 15:49 -18.77396 -48.14650 36134 ft 467 kts 333°
2026-04-21 15:49 -18.71527 -48.17598 36114 ft 467 kts 333°
2026-04-21 15:50 -18.65646 -48.20526 36082 ft 467 kts 333°
2026-04-21 15:50 -18.59762 -48.23448 36044 ft 468 kts 333°
2026-04-21 15:51 -18.53915 -48.26349 36013 ft 468 kts 333°
2026-04-21 15:51 -18.50964 -48.27814 35688 ft 473 kts 333°
2026-04-21 15:51 -18.47980 -48.29295 35134 ft 473 kts 334°
2026-04-21 15:52 -18.45002 -48.30772 34517 ft 473 kts 334°
2026-04-21 15:52 -18.42023 -48.32249 33898 ft 473 kts 334°
2026-04-21 15:52 -18.40057 -48.33222 33582 ft 470 kts 334°
2026-04-21 15:52 -18.36118 -48.35173 32908 ft 465 kts 334°
2026-04-21 15:53 -18.33247 -48.36594 32432 ft 460 kts 334°
2026-04-21 15:53 -18.30363 -48.38022 31978 ft 456 kts 334°
2026-04-21 15:53 -18.27504 -48.39436 31527 ft 452 kts 334°
2026-04-21 15:53 -18.24671 -48.40838 31079 ft 448 kts 334°
2026-04-21 15:54 -18.21861 -48.42227 30642 ft 444 kts 334°
2026-04-21 15:54 -18.19078 -48.43603 30202 ft 441 kts 335°
2026-04-21 15:54 -18.16314 -48.44969 29703 ft 437 kts 335°
2026-04-21 15:54 -18.13577 -48.46321 29210 ft 433 kts 335°
2026-04-21 15:55 -18.10899 -48.47642 28740 ft 429 kts 334°
2026-04-21 15:55 -18.08205 -48.48972 28291 ft 425 kts 334°
2026-04-21 15:55 -18.05546 -48.50284 27843 ft 421 kts 334°
2026-04-21 15:55 -18.02903 -48.51588 27403 ft 418 kts 334°
2026-04-21 15:56 -18.00282 -48.52880 26969 ft 415 kts 334°
2026-04-21 15:56 -17.97679 -48.54163 26525 ft 412 kts 334°
2026-04-21 15:56 -17.95091 -48.55438 26109 ft 410 kts 334°
2026-04-21 15:56 -17.92517 -48.56706 25678 ft 408 kts 334°
2026-04-21 15:57 -17.89991 -48.57951 25260 ft 406 kts 334°
2026-04-21 15:57 -17.87439 -48.59207 24824 ft 404 kts 334°
2026-04-21 15:57 -17.84896 -48.60458 24387 ft 403 kts 334°
2026-04-21 15:57 -17.82359 -48.61706 23955 ft 402 kts 334°
2026-04-21 15:58 -17.79830 -48.62950 23508 ft 401 kts 334°
2026-04-21 15:58 -17.77309 -48.64190 23020 ft 399 kts 334°
2026-04-21 15:58 -17.74803 -48.65422 22573 ft 397 kts 334°
2026-04-21 15:58 -17.72313 -48.66645 22134 ft 394 kts 334°
2026-04-21 15:59 -17.70672 -48.67451 21859 ft 392 kts 334°
2026-04-21 15:59 -17.67417 -48.69050 21297 ft 389 kts 334°
2026-04-21 15:59 -17.64977 -48.70248 20889 ft 386 kts 334°
2026-04-21 15:59 -17.62550 -48.71439 20472 ft 384 kts 334°
2026-04-21 16:00 -17.60134 -48.72624 20057 ft 382 kts 334°
2026-04-21 16:00 -17.57734 -48.73801 19634 ft 381 kts 334°
2026-04-21 16:00 -17.55338 -48.74976 19219 ft 379 kts 334°
2026-04-21 16:00 -17.52952 -48.76146 18786 ft 377 kts 334°
2026-04-21 16:01 -17.50593 -48.77302 18364 ft 372 kts 334°
2026-04-21 16:01 -17.48260 -48.78445 17835 ft 369 kts 334°
2026-04-21 16:01 -17.45977 -48.79563 17312 ft 366 kts 335°
2026-04-21 16:01 -17.43682 -48.80687 16797 ft 362 kts 335°
2026-04-21 16:02 -17.41411 -48.81799 16283 ft 359 kts 335°
2026-04-21 16:02 -17.39159 -48.82901 15796 ft 355 kts 335°
2026-04-21 16:02 -17.37684 -48.83623 15512 ft 352 kts 335°
2026-04-21 16:02 -17.34749 -48.85059 14939 ft 345 kts 335°
2026-04-21 16:03 -17.32589 -48.86116 14529 ft 340 kts 335°
2026-04-21 16:03 -17.30457 -48.87158 14125 ft 336 kts 336°
2026-04-21 16:03 -17.28388 -48.88169 13786 ft 330 kts 336°
2026-04-21 16:03 -17.26330 -48.89174 13449 ft 323 kts 335°
2026-04-21 16:04 -17.24314 -48.90159 13112 ft 317 kts 336°
2026-04-21 16:04 -17.23000 -48.90801 12847 ft 314 kts 336°
2026-04-21 16:04 -17.21027 -48.91765 12445 ft 312 kts 336°
2026-04-21 16:04 -17.19071 -48.92719 12048 ft 309 kts 336°
2026-04-21 16:05 -17.17134 -48.93664 11670 ft 306 kts 336°
2026-04-21 16:05 -17.15212 -48.94602 11285 ft 304 kts 336°
2026-04-21 16:05 -17.12685 -48.95835 10782 ft 302 kts 336°
2026-04-21 16:05 -17.10811 -48.96749 10629 ft 293 kts 336°
2026-04-21 16:06 -17.08973 -48.97646 10502 ft 291 kts 336°
2026-04-21 16:06 -17.07732 -48.98250 10318 ft 293 kts 336°
2026-04-21 16:06 -17.05905 -48.99140 10001 ft 293 kts 336°
2026-04-21 16:06 -17.04059 -49.00040 9628 ft 291 kts 336°
2026-04-21 16:07 -17.02229 -49.00932 9264 ft 290 kts 336°
2026-04-21 16:07 -17.00414 -49.01816 9005 ft 287 kts 336°
2026-04-21 16:07 -16.98037 -49.02974 8712 ft 281 kts 336°
2026-04-21 16:07 -16.96276 -49.03831 8520 ft 278 kts 336°
2026-04-21 16:08 -16.92775 -49.05535 8163 ft 277 kts 337°
2026-04-21 16:08 -16.91615 -49.06099 7999 ft 278 kts 336°
2026-04-21 16:08 -16.89872 -49.06948 7757 ft 273 kts 336°
2026-04-21 16:09 -16.88167 -49.07778 7525 ft 268 kts 336°
2026-04-21 16:09 -16.86512 -49.08584 7456 ft 257 kts 336°
2026-04-21 16:09 -16.84920 -49.09357 7291 ft 250 kts 337°
2026-04-21 16:09 -16.83358 -49.10116 7057 ft 246 kts 337°
2026-04-21 16:10 -16.81805 -49.10828 6811 ft 241 kts 346°
2026-04-21 16:10 -16.80194 -49.10813 6610 ft 229 kts 20°
2026-04-21 16:10 -16.78786 -49.10144 6441 ft 219 kts 31°
2026-04-21 16:10 -16.77510 -49.09365 6243 ft 213 kts 32°
2026-04-21 16:11 -16.76251 -49.08590 6051 ft 206 kts 32°
2026-04-21 16:11 -16.75035 -49.07847 5884 ft 199 kts 32°
2026-04-21 16:11 -16.73845 -49.07131 5602 ft 196 kts 28°
2026-04-21 16:11 -16.72534 -49.06904 5335 ft 195 kts 348°
2026-04-21 16:12 -16.71410 -49.07605 5093 ft 188 kts 315°
2026-04-21 16:12 -16.70680 -49.08700 4864 ft 180 kts 302°
2026-04-21 16:12 -16.70066 -49.09801 4653 ft 168 kts 301°
2026-04-21 16:12 -16.69507 -49.10814 4412 ft 160 kts 301°
2026-04-21 16:13 -16.68957 -49.11802 4212 ft 153 kts 302°
2026-04-21 16:13 -16.68423 -49.12760 4024 ft 153 kts 302°
2026-04-21 16:13 -16.67886 -49.13723 3864 ft 156 kts 303°
2026-04-21 16:13 -16.67336 -49.14707 3695 ft 158 kts 301°
2026-04-21 16:14 -16.66791 -49.15684 3517 ft 154 kts 302°
2026-04-21 16:14 -16.66259 -49.16636 3349 ft 152 kts 303°
2026-04-21 16:14 -16.65744 -49.17591 3204 ft 150 kts 302°
2026-04-21 16:14 -16.65233 -49.18512 3063 ft 148 kts 303°
2026-04-21 16:15 -16.64708 -49.19442 2855 ft 148 kts 302°
2026-04-21 16:15 -16.64186 -49.20337 2641 ft 140 kts 304°
2026-04-21 16:15 -16.63708 -49.21198 2494 ft 135 kts 301°
2026-04-21 16:15 -16.63278 -49.21962 2444 ft 97 kts 300°
2026-04-21 16:16 -16.63053 -49.22363 2454 ft 28 kts 301°
2026-04-21 16:16 -16.62944 -49.22527 2461 ft 27 kts 314°
2026-04-21 16:16 -16.62848 -49.22607 2458 ft 9 kts 330°
2026-04-21 16:16 -16.62795 -49.22638 2458 ft 9 kts 330°
2026-04-21 16:17 -16.62744 -49.22625 2458 ft 8 kts 47°
2026-04-21 16:17 -16.62746 -49.22571 2461 ft 9 kts 120°
2026-04-21 16:17 -16.62789 -49.22494 2461 ft 16 kts 120°
2026-04-21 16:17 -16.62846 -49.22391 2459 ft 17 kts 120°
2026-04-21 16:18 -16.62909 -49.22279 2452 ft 19 kts 120°
2026-04-21 16:18 -16.62963 -49.22183 2448 ft 15 kts 119°
2026-04-21 16:18 -16.62995 -49.22075 2442 ft 17 kts 96°
2026-04-21 16:18 -16.62976 -49.21943 2444 ft 20 kts 77°
2026-04-21 16:19 -16.62947 -49.21808 2452 ft 19 kts 77°
2026-04-21 16:19 -16.62924 -49.21703 2462 ft 10 kts 77°
2026-04-21 16:19 -16.62927 -49.21636 2462 ft 10 kts 130°
2026-04-21 16:19 -16.62969 -49.21613 2461 ft 4 kts 158°
2026-04-21 16:20 -16.62995 -49.21601 2464 ft 4 kts 148°
2026-04-21 16:20 -16.62995 -49.21572 2462 ft 4 kts 62°
2026-04-21 16:20 -16.62981 -49.21544 2463 ft 4 kts 64°
2026-04-21 16:20 -16.62975 -49.21531 2461 ft 0 kts 64°